Location: Barcelona
(41.3830°N, 2.1830°E)
Time: 15:11:53
(UTC+02:00)

ISS - Pass Details

Date: 30 March 2020
Orbit: 416 x 423 km, 51.6° (Epoch: 02 April)

Event Time Altitude Azimuth Distance (km) Brightness Sun altitude
Rises 22:31:48 0° 309° (NW) 2,361 1.4 -25.0°
Reaches altitude 10° 22:34:01 10° 318° (NW) 1,496 0.0 -25.4°
Enters shadow 22:35:44 24° 338° (NNW) 905 -1.6 -25.7°
